Starlink 5092

operational
NORAD ID: 55408 Int'l Des: 2023-014 Owner: SPXS Country: US Constellation: starlink
LEOCIRCULAR

Über Starlink 5092

Beschreibung wird geladen...

Live-Position

3D-Globus wird geladen...

Nächste Überflüge

Höhenverlauf

Altitude vs Time

uPlot chart will show altitude changes over time

Zweizeiliger Elementsatz

1 55408U 23014T 25347.25089842 .00000143 00000-0 19747-4 0 9991
2 55408 69.9988 282.5607 0003321 267.8777 92.2001 14.98328276159106
Epoch: 13. Dez. 2025 • Age: 30 hours

Aktueller Status

Höhe 587.2 km
Geschwindigkeit 7.57 km/s
Subsatellitenpunkt -45.05°S, 9.01°W
Startdatum 31. Jan. 2023
Alter 2.8 years
Typ internet

Technische Details

Klassifizierung Payload
Masse 305.00 kg
Trockenmasse 290.00 kg
Gesamtmasse 305.00 kg
Länge 0.20 m
Durchmesser 2.80 m
Spannweite 9.00 m
Form Box + pan
Hersteller SPXS
Bus-Typ Starlink
Phasenstatus In Orbit
Besitzer/Staat SPXS/US

Große Konstellationen

Loading constellations...